Theta_e
320 321 321 321 321 321 321 321 321 321 321 320 319 319 319 321 321 315 302 312 315 342 346 331 324 316 319 317 317 318 304 307 310 312 313 320 319 326 328 325 330 329 335 339 350
320 320 320 320 320 321 321 321 321 321 320 320 320 319 321 321 316 311 323 335 338 350 314 319 314 318 314 313 311 306 302 308 316 319 317 322 322 323 322 323 326 330 340 346 353
319 319 319 319 320 320 320 320 320 320 319 320 321 321 321 320 315 317 341 339 343 345 311 320 316 318 309 308 307 308 303 312 316 322 321 320 323 324 321 317 323 326 335 343 348
318 318 318 319 319 319 319 319 319 319 319 319 321 321 321 316 309 325 346 347 344 332 310 311 309 305 304 302 306 302 308 310 309 317 320 318 320 321 323 322 326 335 339 342 344
317 317 318 317 318 318 318 318 318 318 318 319 321 321 313 307 310 337 349 349 327 313 307 309 308 307 301 302 305 302 305 308 311 311 315 320 318 321 320 326 332 339 339 339 342
316 316 316 317 317 318 317 318 318 317 318 318 320 320 313 298 326 337 328 314 312 307 307 313 312 310 305 304 303 306 307 309 311 312 317 317 317 319 325 337 337 338 338 340 340
315 315 316 316 316 317 317 317 316 317 318 318 320 319 310 301 325 321 312 309 309 307 308 312 315 307 305 303 308 310 306 309 310 312 312 316 312 313 328 338 336 336 338 340 342
315 315 315 315 315 316 316 315 316 321 318 319 320 314 302 317 323 317 309 306 307 306 310 314 315 309 304 308 308 303 302 301 308 312 313 311 304 315 333 336 334 336 338 338 339
314 314 314 315 315 315 314 314 318 319 320 320 312 311 301 320 312 312 309 308 308 306 307 316 310 304 308 301 297 298 295 299 305 311 312 310 305 319 329 335 332 334 334 335 337
313 313 314 314 314 314 313 314 320 319 319 322 322 300 304 313 314 311 309 313 311 309 308 307 304 300 300 298 288 293 297 299 300 306 308 307 307 319 325 329 328 329 331 332 331
313 313 313 313 313 313 309 303 301 301 305 301 302 302 308 315 317 310 313 313 310 306 298 301 297 294 298 301 302 301 299 298 301 305 305 305 309 317 323 322 324 325 325 326 326
311 312 312 312 312 312 304 302 302 302 296 303 305 310 313 313 306 311 316 309 307 301 301 298 294 300 302 302 301 300 298 297 300 303 306 305 308 314 319 319 321 324 322 324 328
311 312 311 311 311 305 301 303 305 300 295 300 304 303 305 308 305 308 313 309 304 301 299 296 299 304 303 301 299 296 294 295 296 299 303 305 301 309 314 319 321 321 320 323 325
311 311 310 309 301 302 304 307 302 302 289 294 299 303 304 305 303 313 313 309 305 302 301 300 304 304 302 301 300 293 300 300 298 295 290 299 291 296 306 309 314 318 317 321 326
310 310 309 309 300 297 305 303 302 301 283 300 299 306 302 304 306 307 312 308 302 302 301 298 302 301 302 303 302 300 302 299 299 294 292 295 291 295 305 305 307 314 315 321 325
310 308 308 302 297 301 303 302 300 288 283 297 301 298 298 299 302 308 307 309 308 302 301 301 306 304 303 306 305 307 299 296 293 291 287 291 291 294 299 305 308 314 317 321 323
308 308 305 305 294 301 301 298 288 283 295 295 294 296 294 295 298 304 303 301 299 293 292 298 300 303 306 301 302 298 292 287 287 286 286 293 294 297 304 310 313 313 316 321 325
306 306 304 304 301 300 297 293 281 290 291 298 296 295 293 296 297 301 301 298 300 298 294 292 292 300 305 301 299 295 294 288 283 284 288 294 291 299 311 315 318 317 318 327 329
305 296 297 300 305 299 294 284 284 289 297 296 295 292 292 295 297 296 298 298 301 301 295 292 294 304 305 303 303 296 292 294 288 287 287 290 297 306 313 322 314 319 322 327 330
296 296 298 303 303 298 291 286 287 295 297 295 290 292 289 293 292 292 295 298 300 303 300 296 292 299 304 303 303 299 300 292 289 284 283 288 295 297 305 316 323 325 324 327 330
295 296 301 302 298 295 287 287 293 298 297 293 291 291 291 292 291 290 292 298 302 301 302 297 294 295 300 297 297 295 293 291 290 289 286 285 291 303 307 314 321 323 327 328 328
291 293 302 299 291 287 288 292 297 295 295 294 295 294 293 293 290 291 292 296 301 300 298 297 292 291 295 300 303 298 296 293 290 288 289 289 292 309 309 314 324 324 328 329 323
291 293 303 299 285 286 290 293 295 294 295 294 294 296 295 292 290 293 296 301 301 298 296 298 292 288 291 294 298 298 296 293 291 291 291 290 292 311 312 314 320 325 327 327 329
294 293 296 296 292 292 293 295 296 302 298 298 295 295 293 291 292 292 294 299 301 300 321 305 290 291 288 292 296 299 301 297 294 290 289 291 294 303 310 312 318 323 326 328 329
294 291 292 289 292 292 293 296 296 296 301 298 296 297 297 289 289 291 294 296 300 308 302 298 294 291 293 296 301 303 303 299 297 296 296 298 296 301 309 312 317 321 327 328 328
292 291 291 290 291 288 292 292 296 299 298 296 298 302 300 291 291 292 294 291 294 299 300 300 293 298 295 303 304 303 305 304 304 301 299 300 299 305 309 315 316 318 326 326 327
291 292 292 290 289 288 290 294 298 299 301 303 303 300 298 297 305 306 301 297 294 298 298 301 295 293 291 299 300 294 302 304 305 306 305 301 305 311 310 313 315 316 324 323 325
Wind_Speed
14 14 14 15 14 14 13 12 12 11 11 11 11 11 11 10 8 1 5 9 5 3 1 3 3 1 2 3 1 3 6 1 4 3 5 3 2 2 3 5 2 6 5 4 13
15 15 15 15 15 14 13 13 12 11 11 10 9 9 8 7 2 5 11 6 9 9 4 1 2 3 3 2 1 5 4 8 7 5 5 4 5 3 2 2 3 2 4 12 14
15 16 16 15 16 15 14 13 13 12 11 9 9 7 7 4 1 6 6 9 7 7 2 2 2 2 3 2 0 2 4 7 7 9 6 5 5 4 7 6 7 8 10 14 14
16 16 16 16 16 16 15 14 14 13 12 9 8 6 6 2 2 1 5 8 7 4 1 3 3 2 1 1 1 1 6 4 4 6 5 7 3 5 9 9 7 10 17 14 13
17 17 17 17 17 16 16 15 14 13 11 8 7 5 1 2 6 4 11 10 6 4 2 3 2 1 1 2 4 2 4 5 9 7 7 7 11 7 8 2 6 14 17 14 12
18 18 18 18 19 18 17 17 15 14 10 8 6 3 2 2 1 6 10 7 6 4 4 3 3 3 3 1 2 3 6 8 9 5 1 6 6 8 1 8 13 15 13 13 14
20 20 20 20 20 20 18 19 19 15 9 6 4 3 1 7 4 6 7 5 4 4 4 3 1 2 1 5 1 4 7 7 5 4 2 5 2 7 6 10 15 14 12 11 11
20 21 21 21 20 21 19 18 18 11 4 5 3 2 5 3 6 6 2 3 2 2 1 2 0 1 1 2 7 4 3 6 5 5 3 5 9 3 6 14 13 11 9 7 11
21 21 22 21 21 21 19 19 8 4 5 5 2 1 6 1 3 5 4 5 5 1 2 3 2 2 5 4 6 8 2 2 9 4 1 2 7 3 2 4 6 8 8 7 1
21 22 22 22 22 22 22 4 2 2 3 4 3 2 1 3 3 5 4 5 3 3 2 3 6 3 4 5 4 2 0 3 5 6 1 4 7 1 5 5 8 7 6 5 5
21 23 23 23 23 21 10 2 7 4 3 4 2 2 4 6 4 2 4 5 4 6 3 3 4 6 8 5 2 1 2 3 6 7 2 4 5 4 5 5 8 9 6 7 6
23 23 24 24 23 19 2 7 5 4 10 7 7 6 4 2 3 3 7 5 4 4 3 5 5 9 3 3 4 2 2 6 8 2 2 2 5 4 2 3 6 4 6 5 5
22 23 24 25 27 4 3 3 2 6 2 9 5 5 6 9 7 7 10 5 5 5 5 6 1 7 4 4 4 3 4 4 6 5 2 3 3 5 2 2 6 5 3 2 4
21 22 22 29 5 4 3 6 5 5 5 8 4 6 4 8 3 7 7 7 3 10 7 5 4 4 1 3 6 2 6 3 5 1 3 2 5 6 3 5 5 7 1 1 0
21 21 20 11 4 1 4 9 5 3 3 1 2 1 3 8 6 1 5 4 8 7 7 7 2 3 2 4 6 7 2 3 2 2 3 3 5 9 5 6 7 8 4 5 4
22 20 17 1 2 6 7 10 4 6 7 4 2 2 4 2 2 4 4 5 4 5 0 6 2 3 6 3 6 5 3 8 5 3 3 3 5 8 4 5 4 4 7 9 5
25 21 8 1 3 5 6 3 6 4 5 5 3 4 3 3 2 3 6 6 6 4 2 5 5 5 6 4 1 4 6 4 5 6 6 1 1 11 3 5 6 6 6 11 8
28 20 4 4 3 5 2 6 4 2 5 5 4 3 2 4 5 3 7 5 2 5 3 2 9 3 3 8 7 5 8 7 5 4 5 1 5 7 4 6 7 3 10 9 10
21 3 1 4 6 2 6 3 8 6 3 6 5 6 6 4 3 3 7 7 8 9 9 5 6 4 3 4 7 4 3 4 9 3 2 4 7 10 2 4 4 7 8 7 7
3 3 3 2 6 4 6 5 4 4 4 4 3 2 4 5 3 3 6 4 6 10 5 5 4 4 4 2 2 5 6 4 3 4 3 5 5 7 5 5 5 7 9 8 4
2 3 5 2 2 6 4 7 4 5 5 4 1 3 2 3 1 2 3 2 3 4 8 7 6 5 4 3 7 2 2 6 5 4 7 2 8 9 10 10 14 12 9 9 7
2 4 4 2 5 1 4 5 3 2 3 3 0 2 1 3 3 2 4 4 2 2 7 6 5 4 11 5 1 3 5 7 7 4 2 4 9 2 7 6 8 4 6 2 4
3 2 3 4 4 1 4 3 2 1 1 2 2 1 2 2 4 3 2 1 3 1 5 7 2 3 10 7 1 4 4 5 6 4 6 7 9 3 5 5 7 11 8 4 6
2 2 4 5 0 2 2 1 1 2 3 3 3 2 2 3 3 4 3 4 8 3 5 6 3 8 9 10 3 4 4 5 7 5 5 7 5 6 8 8 6 5 7 8 6
4 0 1 1 3 3 2 5 2 5 5 6 2 5 2 2 3 4 3 5 5 3 1 4 5 4 5 4 4 3 5 7 4 6 5 5 8 8 12 13 7 7 7 10 9
3 2 4 0 2 0 2 2 2 3 1 2 3 6 3 5 0 4 5 3 5 6 4 2 1 2 3 2 8 5 6 7 5 4 3 3 9 4 4 8 6 8 9 11 11
3 2 2 2 2 2 1 0 1 2 3 4 3 2 3 3 5 12 8 9 6 5 2 4 3 4 3 3 1 2 6 6 4 5 7 6 6 2 2 6 6 7 9 12 10
Wind_Direction
8 5 1 358 357 357 354 350 350 343 336 334 337 328 323 329 313 54 254 225 186 200 87 97 68 340 72 352 71 118 65 91 219 163 266 317 236 40 91 116 184 165 148 192 142
5 2 1 358 352 356 350 346 340 335 332 324 324 323 319 339 333 261 246 241 226 158 97 105 63 68 21 330 17 89 95 207 190 203 229 223 185 143 128 146 209 136 65 138 141
2 1 357 353 349 349 347 341 330 330 323 317 316 314 311 323 209 249 206 205 183 175 100 170 25 62 25 330 84 115 175 194 239 225 206 207 228 187 144 234 214 183 154 168 158
358 360 354 349 345 340 340 335 326 326 316 314 311 310 303 216 88 80 153 161 162 169 20 99 32 50 92 309 335 316 253 237 226 232 200 213 185 212 185 212 201 168 160 163 163
357 355 350 346 340 337 333 327 323 317 310 300 299 310 276 355 258 27 124 114 111 134 180 127 131 195 347 311 344 192 286 294 283 284 228 188 218 196 235 187 123 138 161 159 165
355 351 348 344 339 334 332 325 320 315 301 283 292 315 221 294 79 133 118 121 135 143 168 153 211 206 298 297 107 268 273 281 293 314 10 178 230 154 278 132 126 150 169 166 173
354 349 346 343 337 332 329 325 322 314 289 253 265 240 199 229 129 136 121 160 168 157 151 227 242 10 328 325 331 305 327 345 350 357 286 141 279 220 151 148 148 165 174 170 199
351 348 343 340 333 327 325 324 323 311 213 199 226 209 240 338 138 135 159 113 132 234 3 318 223 224 206 306 8 27 53 12 315 339 14 94 272 341 173 151 157 170 166 167 216
349 345 341 336 330 324 324 322 322 83 138 169 225 137 280 255 164 186 157 150 135 165 309 294 31 62 14 67 11 11 258 332 317 353 289 106 267 129 27 140 159 171 163 191 98
348 342 339 334 329 325 325 318 141 106 215 208 252 37 268 232 182 154 185 155 130 114 28 71 49 64 34 73 218 191 313 326 271 293 311 246 258 75 113 147 198 191 174 185 122
346 340 336 332 328 328 345 28 11 347 9 223 224 261 269 298 124 165 169 137 95 59 140 17 81 215 219 181 145 13 231 256 249 262 275 238 273 209 161 182 212 213 159 212 180
345 339 335 331 323 317 78 86 117 230 310 246 242 256 261 78 346 147 134 128 127 167 115 24 246 223 173 171 212 229 318 283 287 304 136 249 285 314 228 263 247 242 186 220 113
343 339 334 328 321 343 350 107 56 132 234 294 210 196 197 142 203 219 144 137 134 144 181 165 231 118 162 199 185 222 189 245 221 332 37 132 310 290 294 186 268 240 100 291 172
340 338 336 328 44 329 295 322 322 183 39 277 268 278 139 154 229 183 170 138 155 188 160 225 249 224 179 249 156 279 201 231 271 51 251 32 276 292 301 285 278 266 257 173 116
336 338 334 336 268 291 318 323 328 73 355 267 227 134 160 164 161 207 200 73 163 172 118 247 205 148 164 214 175 233 122 216 257 137 78 338 79 268 350 310 246 235 211 141 187
332 331 329 199 286 254 329 316 50 42 255 356 96 144 121 277 151 84 119 70 144 136 314 233 241 206 211 212 186 279 98 42 49 77 40 267 127 287 242 217 282 242 184 147 164
328 321 304 266 239 342 321 37 51 161 317 328 351 8 157 192 205 116 147 161 165 110 311 316 242 229 184 250 27 93 63 347 3 16 210 25 78 235 249 260 233 260 127 143 165
327 318 210 216 312 343 36 56 173 245 259 305 353 313 169 151 201 111 118 174 224 92 109 145 325 195 161 189 175 172 149 153 196 199 246 330 234 256 191 276 273 120 135 150 175
325 336 319 269 201 320 78 104 204 205 300 337 323 63 355 10 117 119 178 195 199 163 170 158 269 288 215 184 144 173 182 175 106 3 53 264 294 312 81 52 75 138 143 177 170
332 349 288 5 146 73 78 223 233 224 323 10 59 38 23 335 80 144 171 217 214 183 142 205 295 248 283 59 45 163 155 88 7 140 212 299 292 242 273 147 138 178 186 189 191
25 57 322 49 38 52 164 221 254 250 56 46 29 327 307 321 14 187 207 319 171 162 174 149 150 250 36 226 193 118 177 57 119 116 159 165 266 217 227 175 183 199 193 190 149
350 54 314 23 63 27 157 197 253 291 360 351 115 247 265 8 329 308 234 211 11 167 143 205 154 219 220 258 228 202 196 141 126 229 105 140 271 2 266 151 167 208 217 224 46
51 289 316 71 113 296 291 277 266 335 297 37 314 181 14 18 346 247 264 268 44 343 180 177 229 0 343 350 291 198 162 114 111 84 184 134 261 335 305 172 179 175 188 133 97
54 55 342 47 88 138 19 306 298 253 245 212 250 67 359 329 214 292 307 307 345 336 359 107 145 171 186 203 170 154 168 162 134 114 171 217 272 286 253 219 188 171 137 141 138
22 62 206 267 356 41 10 356 358 9 348 25 82 68 14 280 308 232 255 315 327 17 65 134 203 196 248 224 192 221 188 170 145 157 146 233 202 242 226 211 165 150 134 131 149
66 40 358 293 308 139 11 24 71 330 303 342 55 316 275 213 143 289 8 245 240 319 9 316 209 161 341 305 182 194 228 196 174 137 293 231 258 223 265 111 135 143 157 154 167
335 347 105 332 4 97 198 258 49 318 256 238 317 296 279 194 277 259 227 260 259 291 271 354 115 85 258 339 88 4 200 210 194 164 152 189 240 152 116 132 158 142 164 162 153